Regional Weather Roundup
Issued by NWS

Home | Current Version | Previous Version | Text Only | Print | Product List | Glossary On
Versions: 1 2 3 4 5 6 7 8 9 10 11 12 13 14 15 16 17 18 19 20 21 22 23 24 25 26 27 28 29 30 31 32 33 34 35 36 37 38 39 40 41 42 43 44 45 46 47 48 49 50
000
ASUS44 KLIX 020211
RWRLA
LOUISIANA WEATHER ROUNDUP
NATIONAL WEATHER SERVICE NEW ORLEANS LA
900 PM CDT TUE SEP 01 2015

NOTE: "FAIR" INDICATES FEW OR NO CLOUDS BELOW 12,000 FEET WITH NO
      SIGNIFICANT WEATHER AND/OR OBSTRUCTIONS TO VISIBILITY.
      SKY/WX - SKY CONDITION AND SIGNIFICANT WEATHER.
      TMP - AIR TEMPERATURE.    DP   - DEWPOINT TEMPERATURE.
      RH  - RELATIVE HUMIDITY.  PRES - PRESSURE.
      HX  - HEAT INDEX.         WCI  - WIND CHILL INDEX.

*  THESE STATIONS ARE NOT NWS OR FAA STATIONS AND ARE NOT UNDER
   NWS QUALITY CONTROL.

LAZ040-048-061>063-065-066-069-020300-
SOUTHEAST LOUISIANA

CITY           SKY/WX    TMP DP  RH WIND       PRES   REMARKS
N.O. AUDUBON   NOT AVBL
N.O. INTL ARPT CLOUDY    82  72  71 S6        30.03R
N.O. LAKEFRONT MOCLDY    83  71  67 SE5       30.04R
N.O. DOWNTOWN* FAIR      86  73  66 SE6       30.04S
RESERVE*       FAIR      80  75  84 CALM      30.04R
SLIDELL        PTCLDY    77  74  90 N3        30.03R
BATON ROUGE    CLOUDY    81  72  74 S5        30.03R
BOOTHVILLE     MOCLDY    82  76  81 CALM      30.04R
BELLE CHASSE   MOCLDY    82  74  76 S3        30.03R
BOGALUSA*      NOT AVBL
GALLIANO*      CLOUDY    79  74  84 CALM      30.03S
NEW ROADS*     FAIR      79  73  80 W6        30.04R
GONZALES*      FAIR      75  75 100 CALM      30.03R
HAMMOND*       PTCLDY    79  70  73 CALM      30.05S
HOUMA*         CLOUDY    76  73  91 CALM      30.04R
PORT FOURCHON* CLEAR     86  72  62 VRB6      30.04S

$$

LAZ041-044-053-054-020300-
SOUTHWEST LOUISIANA

CITY           SKY/WX    TMP DP  RH WIND       PRES   REMARKS
LAKE CHARLES   CLOUDY    76  74  93 E5        30.03R
LAFAYETTE      CLOUDY    77  73  87 NW3       30.04R
PATTERSON      CLOUDY    79  73  83 CALM      30.05S
SALT POINT       N/A     80  75  84 CALM      30.02R
NEW IBERIA     CLOUDY    80  74  81 CALM      30.04R
CHENAULT AIRPK NOT AVBL

$$

LAZ027-028-020300-
CENTRAL LOUISIANA

CITY           SKY/WX    TMP DP  RH WIND       PRES   REMARKS
FORT POLK      CLOUDY    72  71  95 N3        30.03S
ALEXANDRIA INT CLOUDY    76  72  87 CALM      30.03R
ALEXANDRIA     CLOUDY    80  72  76 W6        30.04R

$$

LAZ001-002-020300-
NORTHWEST LOUISIANA

CITY           SKY/WX    TMP DP  RH WIND       PRES   REMARKS
SHREVEPORT     CLOUDY    81  68  64 SW3       30.04R
BARKSDALE AFB  MOCLDY    81  66  60 SE3       30.04R
DTN SHREVEPORT MOCLDY    82  66  58 SW6       30.04R

$$

LAZ014-016-020300-
NORTHEAST LOUISIANA

CITY           SKY/WX    TMP DP  RH WIND       PRES   REMARKS
MONROE         CLOUDY    75  68  78 CALM      30.04S
TALLULAH       CLOUDY    82  69  64 N7        30.05R

$$



USA.gov is the U.S. government's official web portal to all federal, state and local government web resources and services.